Location: Unspecified
(59.0112°N, 0.0000°E)
Time: 00:25:20
(UTC+00:00)

Sep Motor Cover - Visible Passes

Search period start: 04 April 2026 00:00
Search period end: 14 April 2026 00:00
Orbit: 836 x 1142 km, 71.0° (Epoch: 29 March)

Date Brightness Start Highest point End Pass type
(mag) Time Alt. Az. Time Alt. Az. Time Alt. Az.
4 Apr ? 20:37:40 10° NW 20:44:44 65° WSW 20:50:31 14° SSE visible
4 Apr ? 22:26:04 10° NW 22:30:47 20° W 22:35:20 10° SW visible
5 Apr ? 19:19:54 10° NW 19:27:06 71° NE 19:33:52 10° SE visible
5 Apr ? 21:07:37 10° NW 21:14:11 42° WSW 21:19:57 12° S visible
5 Apr ? 22:58:00 10° WNW 22:59:35 11° W 23:01:09 10° W visible
6 Apr ? 19:49:45 10° NW 19:56:56 81° SW 20:03:38 10° SSE visible
6 Apr ? 21:37:46 10° NW 21:43:22 26° W 21:48:40 10° SSW visible
7 Apr ? 20:19:39 10° NW 20:26:31 54° WSW 20:32:56 10° S visible
7 Apr ? 22:08:31 10° WNW 22:12:18 16° W 22:15:59 10° SW visible
8 Apr ? 20:49:40 10° NW 20:55:51 34° WSW 21:01:41 10° SSW visible
9 Apr ? 19:31:43 10° NW 19:38:46 69° WSW 19:45:20 10° SSE visible
9 Apr ? 21:20:00 10° NW 21:24:56 21° W 21:29:40 10° SW visible
10 Apr ? 20:01:39 10° NW 20:08:15 45° WSW 20:14:26 10° S visible
10 Apr ? 21:51:24 10° WNW 21:53:46 12° W 21:56:06 10° WSW visible
11 Apr ? 20:31:46 10° NW 20:37:29 28° WSW 20:42:54 10° SSW visible
12 Apr ? 21:02:22 10° NW 21:06:27 17° W 21:10:25 10° SW visible
13 Apr ? 19:43:40 10° NW 19:49:57 37° WSW 19:55:49 10° S visible
